Time,TemperatureF,DewpointF,PressureIn,WindDirection,WindDirectionDegrees,WindSpeedMPH,WindSpeedGustMPH,Humidity,HourlyPrecipIn,Conditions,Clouds,dailyrainin,SoftwareType,DateUTC
2013-03-14 00:02:00,37.0,26.0,-100.00,East,89,4.0,6.0,66,-99.99,,,-99.99,,2013-03-14 06:02:00,
2013-03-14 00:12:00,37.0,26.0,-100.00,East,89,4.0,6.0,66,-99.99,,,-99.99,,2013-03-14 06:12:00,
2013-03-14 00:52:00,37.0,26.0,-100.00,East,86,3.0,4.0,64,-99.99,,,-99.99,,2013-03-14 06:52:00,
2013-03-14 01:11:00,37.0,26.0,-100.00,East,86,3.0,4.0,64,-99.99,,,-99.99,,2013-03-14 07:11:00,
2013-03-14 01:52:00,34.0,27.0,-100.00,ESE,103,2.0,4.0,77,-99.99,,,-99.99,,2013-03-14 07:52:00,
2013-03-14 02:02:00,34.0,27.0,-100.00,ESE,103,2.0,4.0,77,-99.99,,,-99.99,,2013-03-14 08:02:00,
2013-03-14 02:12:00,34.0,27.0,-100.00,ESE,103,2.0,4.0,77,-99.99,,,-99.99,,2013-03-14 08:12:00,
2013-03-14 02:52:00,30.0,26.0,-100.00,SE,142,5.0,7.0,83,-99.99,,,-99.99,,2013-03-14 08:52:00,
2013-03-14 03:01:00,30.0,26.0,-100.00,SE,142,5.0,7.0,83,-99.99,,,-99.99,,2013-03-14 09:01:00,
2013-03-14 03:12:00,30.0,26.0,-100.00,SE,142,5.0,7.0,83,-99.99,,,-99.99,,2013-03-14 09:12:00,
2013-03-14 03:52:00,33.0,26.0,-100.00,ENE,75,3.0,4.0,74,-99.99,,,-99.99,,2013-03-14 09:52:00,
2013-03-14 04:12:00,33.0,26.0,-100.00,ENE,75,3.0,4.0,74,-99.99,,,-99.99,,2013-03-14 10:12:00,
2013-03-14 04:52:00,29.0,24.0,-100.00,ESE,122,4.0,5.0,83,-99.99,,,-99.99,,2013-03-14 10:52:00,
2013-03-14 05:02:00,29.0,24.0,-100.00,ESE,122,4.0,5.0,83,-99.99,,,-99.99,,2013-03-14 11:02:00,
2013-03-14 05:12:00,29.0,24.0,-100.00,ESE,122,4.0,5.0,83,-99.99,,,-99.99,,2013-03-14 11:12:00,
2013-03-14 05:52:00,28.0,24.0,-100.00,ESE,122,3.0,4.0,86,-99.99,,,-99.99,,2013-03-14 11:52:00,
2013-03-14 06:02:00,28.0,24.0,-100.00,ESE,122,3.0,4.0,86,-99.99,,,-99.99,,2013-03-14 12:02:00,
2013-03-14 06:12:00,28.0,24.0,-100.00,ESE,122,3.0,4.0,86,-99.99,,,-99.99,,2013-03-14 12:12:00,
2013-03-14 06:52:00,31.0,25.0,-100.00,West,262,1.0,5.0,80,-99.99,,,-99.99,,2013-03-14 12:52:00,
2013-03-14 08:02:00,27.0,25.0,-100.00,West,270,3.0,3.0,91,-99.99,,,-99.99,,2013-03-14 14:02:00,
2013-03-14 08:12:00,27.0,25.0,-100.00,West,270,3.0,3.0,91,-99.99,,,-99.99,,2013-03-14 14:12:00,
2013-03-14 08:53:00,27.0,26.0,-100.00,SSW,193,0.0,1.0,95,-99.99,,,-99.99,,2013-03-14 14:53:00,
2013-03-14 09:12:00,27.0,26.0,-100.00,SSW,193,0.0,1.0,95,-99.99,,,-99.99,,2013-03-14 15:12:00,
2013-03-14 09:52:00,37.0,26.0,-100.00,NNE,25,2.0,3.0,65,-99.99,,,-99.99,,2013-03-14 15:52:00,
2013-03-14 11:52:00,49.0,25.0,-100.00,SW,228,4.0,8.0,39,-99.99,,,-99.99,,2013-03-14 17:52:00,
2013-03-14 12:12:00,49.0,25.0,-100.00,SW,228,4.0,8.0,39,-99.99,,,-99.99,,2013-03-14 18:12:00,
2013-03-14 12:52:00,50.0,25.0,-100.00,SSW,210,8.0,16.0,37,-99.99,,,-99.99,,2013-03-14 18:52:00,
2013-03-14 13:02:00,50.0,25.0,-100.00,SSW,210,8.0,16.0,37,-99.99,,,-99.99,,2013-03-14 19:02:00,
2013-03-14 13:12:00,50.0,25.0,-100.00,SSW,210,8.0,16.0,37,-99.99,,,-99.99,,2013-03-14 19:12:00,
2013-03-14 14:52:00,50.0,24.0,-100.00,WSW,249,12.0,20.0,36,-99.99,,,-99.99,,2013-03-14 20:52:00,
2013-03-14 15:02:00,50.0,24.0,-100.00,WSW,249,12.0,20.0,36,-99.99,,,-99.99,,2013-03-14 21:02:00,
2013-03-14 15:12:00,50.0,24.0,-100.00,WSW,249,12.0,20.0,36,-99.99,,,-99.99,,2013-03-14 21:12:00,
2013-03-14 15:53:00,51.0,24.0,-100.00,WSW,246,15.0,21.0,34,-99.99,,,-99.99,,2013-03-14 21:53:00,
2013-03-14 16:03:00,51.0,24.0,-100.00,WSW,246,15.0,21.0,34,-99.99,,,-99.99,,2013-03-14 22:03:00,
2013-03-14 16:12:00,51.0,24.0,-100.00,WSW,246,15.0,21.0,34,-99.99,,,-99.99,,2013-03-14 22:12:00,
2013-03-14 16:52:00,50.0,24.0,-100.00,West,265,9.0,13.0,36,-99.99,,,-99.99,,2013-03-14 22:52:00,
2013-03-14 17:02:00,50.0,24.0,-100.00,West,265,9.0,13.0,36,-99.99,,,-99.99,,2013-03-14 23:02:00,
2013-03-14 17:12:00,50.0,24.0,-100.00,West,265,9.0,13.0,36,-99.99,,,-99.99,,2013-03-14 23:12:00,
2013-03-14 17:53:00,49.0,25.0,-100.00,WSW,240,8.0,15.0,39,-99.99,,,-99.99,,2013-03-14 23:53:00,
2013-03-14 18:02:00,49.0,25.0,-100.00,WSW,240,8.0,15.0,39,-99.99,,,-99.99,,2013-03-15 00:02:00,
2013-03-14 18:12:00,49.0,25.0,-100.00,WSW,240,8.0,15.0,39,-99.99,,,-99.99,,2013-03-15 00:12:00,
2013-03-14 18:52:00,45.0,26.0,-100.00,SW,218,5.0,7.0,47,-99.99,,,-99.99,,2013-03-15 00:52:00,
2013-03-14 19:02:00,45.0,26.0,-100.00,SW,218,5.0,7.0,47,-99.99,,,-99.99,,2013-03-15 01:02:00,
2013-03-14 19:11:00,45.0,26.0,-100.00,SW,218,5.0,7.0,47,-99.99,,,-99.99,,2013-03-15 01:11:00,
2013-03-14 19:52:00,44.0,26.0,-100.00,WSW,239,4.0,5.0,49,-99.99,,,-99.99,,2013-03-15 01:52:00,
2013-03-14 20:02:00,44.0,26.0,-100.00,WSW,239,4.0,5.0,49,-99.99,,,-99.99,,2013-03-15 02:02:00,
2013-03-14 20:12:00,44.0,26.0,-100.00,WSW,239,4.0,5.0,49,-99.99,,,-99.99,,2013-03-15 02:12:00,
2013-03-14 20:52:00,42.0,25.0,-100.00,South,171,2.0,4.0,52,-99.99,,,-99.99,,2013-03-15 02:52:00,
2013-03-14 21:02:00,42.0,25.0,-100.00,South,171,2.0,4.0,52,-99.99,,,-99.99,,2013-03-15 03:02:00,
2013-03-14 21:12:00,42.0,25.0,-100.00,South,171,2.0,4.0,52,-99.99,,,-99.99,,2013-03-15 03:12:00,
2013-03-14 21:53:00,39.0,25.0,-100.00,ESE,110,4.0,5.0,57,-99.99,,,-99.99,,2013-03-15 03:53:00,
2013-03-14 22:03:00,39.0,25.0,-100.00,ESE,110,4.0,5.0,57,-99.99,,,-99.99,,2013-03-15 04:03:00,
2013-03-14 22:12:00,39.0,25.0,-100.00,ESE,110,4.0,5.0,57,-99.99,,,-99.99,,2013-03-15 04:12:00,
2013-03-14 22:53:00,41.0,22.0,-100.00,SW,226,6.0,12.0,45,-99.99,,,-99.99,,2013-03-15 04:53:00,
2013-03-14 23:52:00,42.0,22.0,-100.00,West,277,0.0,4.0,45,-99.99,,,-99.99,,2013-03-15 05:52:00,